Location: Phoenix
(33.4480°N, 112.0730°W)
Time: 05:11:42
(UTC-07:00)

N. Korean satellite - Visible Passes

Search period start: 12 August 2022 00:00
Search period end: 22 August 2022 00:00
Orbit: 433 x 470 km, 97.3° (Epoch: 11 August)

Date Brightness Start Highest point End Pass type
(mag) Time Alt. Az. Time Alt. Az. Time Alt. Az.
13 Aug 9.1 04:59:35 10° NE 05:02:23 22° E 05:05:09 10° SSE visible
16 Aug 9.5 04:49:25 10° NE 04:51:37 16° E 04:53:49 10° SE visible
18 Aug 8.4 05:12:10 10° NNE 05:15:22 33° E 05:18:33 10° SSE visible
19 Aug 9.8 04:39:35 10° ENE 04:40:37 11° E 04:41:40 10° ESE visible
21 Aug 9.0 05:01:26 10° NE 05:04:16 23° E 05:07:05 10° SSE visible
